TimeEDT,TemperatureF,Dew PointF,Humidity,Sea Level PressureIn,VisibilityMPH,Wind Direction,Wind SpeedMPH,Gust SpeedMPH,PrecipitationIn,Events,Conditions,WindDirDegrees,DateUTC
12:54 AM,70.0,68.0,93,30.17,10.0,Calm,Calm,-,N/A,,Clear,0,2012-09-01 04:54:00
1:54 AM,70.0,68.0,93,30.16,10.0,Calm,Calm,-,N/A,,Clear,0,2012-09-01 05:54:00
2:54 AM,69.1,66.9,93,30.15,10.0,Calm,Calm,-,N/A,,Clear,0,2012-09-01 06:54:00
3:04 AM,69.8,66.2,88,30.24,10.0,NNW,4.6,-,N/A,,Partly Cloudy,330,2012-09-01 07:04:00
3:54 AM,69.1,66.9,93,30.15,10.0,Calm,Calm,-,N/A,,Clear,0,2012-09-01 07:54:00
4:54 AM,69.1,66.9,93,30.15,10.0,Calm,Calm,-,N/A,,Clear,0,2012-09-01 08:54:00
5:54 AM,69.1,66.9,93,30.15,10.0,NNW,6.9,-,N/A,,Clear,340,2012-09-01 09:54:00
6:54 AM,70.0,66.9,90,30.16,10.0,North,5.8,-,N/A,,Clear,350,2012-09-01 10:54:00
7:54 AM,69.1,66.0,90,30.18,10.0,Variable,3.5,-,N/A,,Clear,0,2012-09-01 11:54:00
8:54 AM,72.0,66.0,81,30.19,10.0,North,6.9,-,N/A,,Clear,360,2012-09-01 12:54:00
9:54 AM,77.0,68.0,74,30.18,10.0,North,8.1,-,N/A,,Clear,350,2012-09-01 13:54:00
10:54 AM,80.1,66.9,64,30.19,10.0,North,8.1,-,N/A,,Clear,360,2012-09-01 14:54:00
11:54 AM,82.9,66.9,58,30.18,10.0,North,9.2,16.1,N/A,,Partly Cloudy,360,2012-09-01 15:54:00
12:54 PM,84.0,66.0,55,30.16,10.0,Variable,5.8,-,N/A,,Clear,0,2012-09-01 16:54:00
1:54 PM,86.0,64.9,49,30.14,10.0,WNW,4.6,-,N/A,,Clear,290,2012-09-01 17:54:00
2:54 PM,84.9,68.0,57,30.12,10.0,West,4.6,-,0.00,Rain,Light Rain,260,2012-09-01 18:54:00
3:54 PM,87.1,61.0,41,30.08,10.0,Calm,Calm,-,0.00,,Clear,0,2012-09-01 19:54:00
4:54 PM,80.6,66.2,61,30.17,10.0,South,10.4,-,N/A,,Mostly Cloudy,180,2012-09-01 20:54:00
5:54 PM,82.0,66.0,58,30.07,10.0,SSE,9.2,-,N/A,,Clear,160,2012-09-01 21:54:00
6:54 PM,80.6,68.0,65,30.16,10.0,SSE,5.8,-,N/A,,Clear,160,2012-09-01 22:54:00
7:54 PM,78.1,69.1,74,30.09,10.0,SSW,3.5,-,N/A,,Partly Cloudy,210,2012-09-01 23:54:00
8:54 PM,75.9,69.1,79,30.10,10.0,ESE,3.5,-,N/A,,Clear,120,2012-09-02 00:54:00
9:54 PM,73.0,70.0,90,30.10,10.0,Calm,Calm,-,N/A,,Clear,0,2012-09-02 01:54:00
10:54 PM,73.0,70.0,90,30.09,10.0,Calm,Calm,-,N/A,,Clear,0,2012-09-02 02:54:00
11:54 PM,72.0,69.1,91,30.09,10.0,South,3.5,-,N/A,,Clear,190,2012-09-02 03:54:00